Time,TemperatureF,DewpointF,PressureIn,WindDirection,WindDirectionDegrees,WindSpeedMPH,WindSpeedGustMPH,Humidity,HourlyPrecipIn,Conditions,Clouds,dailyrainin,SoftwareType,DateUTC
2013-07-03 00:00:00,73.5,70.7,30.08,East,87,0.0,7.0,91,0.00,,SCT029,0.64,VWS V14.01,2013-07-03 04:00:00,
2013-07-03 00:01:00,73.5,71.0,30.08,East,94,1.0,1.0,92,0.00,,SCT029,0.00,VWS V14.01,2013-07-03 04:01:00,
2013-07-03 00:03:00,73.5,71.0,30.07,ESE,102,1.0,3.0,92,0.00,,BKN049,0.00,VWS V14.01,2013-07-03 04:03:00,
2013-07-03 00:04:00,73.5,71.0,30.08,NE,38,1.0,3.0,92,0.00,,BKN049,0.00,VWS V14.01,2013-07-03 04:04:00,
2013-07-03 00:09:00,73.4,70.9,30.07,NE,50,0.0,3.0,92,0.00,,BKN049,0.00,VWS V14.01,2013-07-03 04:09:00,
2013-07-03 00:14:00,73.3,70.8,30.07,East,97,1.0,3.0,92,0.00,,BKN049,0.00,VWS V14.01,2013-07-03 04:14:00,
2013-07-03 00:19:00,73.3,71.2,30.08,NE,37,0.0,3.0,93,0.00,,BKN049,0.00,VWS V14.01,2013-07-03 04:19:00,
2013-07-03 00:24:00,73.1,71.0,30.08,NE,34,0.0,3.0,93,0.00,,BKN049,0.00,VWS V14.01,2013-07-03 04:24:00,
2013-07-03 00:29:00,72.8,71.0,30.08,NE,34,0.0,3.0,94,0.00,,BKN049,0.00,VWS V14.01,2013-07-03 04:29:00,
2013-07-03 00:31:00,72.7,70.9,30.08,NE,34,0.0,0.0,94,0.00,,BKN049,0.00,VWS V14.01,2013-07-03 04:31:00,
2013-07-03 00:32:00,72.6,70.8,30.08,NE,34,0.0,1.0,94,0.00,,BKN049,0.00,VWS V14.01,2013-07-03 04:32:00,
2013-07-03 00:37:00,72.4,70.9,30.08,NE,34,0.0,1.0,95,0.00,,BKN049,0.00,VWS V14.01,2013-07-03 04:37:00,
2013-07-03 00:42:00,72.2,70.7,30.08,East,101,0.0,1.0,95,0.00,,BKN049,0.00,VWS V14.01,2013-07-03 04:42:00,
2013-07-03 00:45:00,72.1,70.6,30.08,SW,224,0.0,3.0,95,0.00,,BKN049,0.00,VWS V14.01,2013-07-03 04:45:00,
2013-07-03 00:46:00,72.1,70.6,30.08,ESE,113,0.0,3.0,95,0.00,,BKN049,0.00,VWS V14.01,2013-07-03 04:46:00,
2013-07-03 00:51:00,71.9,70.4,30.08,ESE,122,0.0,3.0,95,0.00,,BKN049,0.00,VWS V14.01,2013-07-03 04:51:00,
2013-07-03 00:53:00,71.9,70.4,30.08,ESE,123,0.0,3.0,95,0.00,,BKN049,0.00,VWS V14.01,2013-07-03 04:53:00,
2013-07-03 00:58:00,71.7,70.2,30.08,ESE,122,0.0,3.0,95,0.00,,BKN049,0.00,VWS V14.01,2013-07-03 04:58:00,
2013-07-03 01:03:00,71.6,70.4,30.08,ESE,107,0.0,0.0,96,0.00,,SCT029,0.00,VWS V14.01,2013-07-03 05:03:00,
2013-07-03 01:07:00,71.6,70.4,30.08,ESE,108,0.0,0.0,96,0.00,,SCT029,0.00,VWS V14.01,2013-07-03 05:07:00,
2013-07-03 01:12:00,71.4,70.2,30.08,ESE,107,0.0,0.0,96,0.00,,SCT029,0.00,VWS V14.01,2013-07-03 05:12:00,
2013-07-03 01:17:00,71.3,70.1,30.08,ESE,107,0.0,0.0,96,0.00,,SCT029,0.00,VWS V14.01,2013-07-03 05:17:00,
2013-07-03 01:19:00,71.2,70.0,30.08,ESE,107,0.0,0.0,96,0.00,,SCT029,0.00,VWS V14.01,2013-07-03 05:19:00,
2013-07-03 01:24:00,71.1,69.9,30.08,ESE,107,0.0,0.0,96,0.00,,SCT029,0.00,VWS V14.01,2013-07-03 05:24:00,
2013-07-03 01:29:00,71.0,69.8,30.08,East,89,0.0,0.0,96,0.00,,SCT029,0.00,VWS V14.01,2013-07-03 05:29:00,
2013-07-03 01:34:00,70.9,70.0,30.08,East,89,0.0,0.0,97,0.00,,SCT029,0.00,VWS V14.01,2013-07-03 05:34:00,
2013-07-03 01:39:00,70.9,70.0,30.08,East,89,0.0,0.0,97,0.00,,SCT029,0.00,VWS V14.01,2013-07-03 05:39:00,
2013-07-03 01:44:00,70.9,70.0,30.09,East,89,0.0,0.0,97,0.00,,SCT029,0.00,VWS V14.01,2013-07-03 05:44:00,
2013-07-03 01:50:00,70.9,70.0,30.09,East,89,0.0,0.0,97,0.00,,SCT029,0.00,VWS V14.01,2013-07-03 05:50:00,
2013-07-03 01:55:00,71.0,70.1,30.08,East,89,0.0,0.0,97,0.00,,SCT029,0.00,VWS V14.01,2013-07-03 05:55:00,
2013-07-03 01:57:00,71.1,70.2,30.08,East,89,0.0,0.0,97,0.00,,SCT029,0.00,VWS V14.01,2013-07-03 05:57:00,
2013-07-03 01:58:00,71.0,70.1,30.08,East,89,0.0,0.0,97,0.00,,SCT029,0.00,VWS V14.01,2013-07-03 05:58:00,
2013-07-03 02:03:00,71.1,70.2,30.08,East,89,0.0,0.0,97,0.00,,BKN028,0.00,VWS V14.01,2013-07-03 06:03:00,
2013-07-03 02:08:00,71.1,70.2,30.08,SW,231,0.0,1.0,97,0.00,,BKN028,0.00,VWS V14.01,2013-07-03 06:08:00,
2013-07-03 02:13:00,71.0,70.1,30.08,East,84,0.0,1.0,97,0.00,,BKN028,0.00,VWS V14.01,2013-07-03 06:13:00,
2013-07-03 02:16:00,71.0,70.1,30.08,East,82,0.0,1.0,97,0.00,,BKN028,0.00,VWS V14.01,2013-07-03 06:16:00,
2013-07-03 02:17:00,70.9,70.0,30.08,East,82,0.0,1.0,97,0.00,,BKN028,0.00,VWS V14.01,2013-07-03 06:17:00,
2013-07-03 02:22:00,70.8,69.9,30.08,East,82,0.0,1.0,97,0.00,,BKN028,0.00,VWS V14.01,2013-07-03 06:22:00,
2013-07-03 02:24:00,70.7,69.8,30.08,East,82,0.0,1.0,97,0.00,,BKN028,0.00,VWS V14.01,2013-07-03 06:24:00,
2013-07-03 02:26:00,70.7,69.8,30.08,East,82,0.0,1.0,97,0.00,,BKN028,0.00,VWS V14.01,2013-07-03 06:26:00,
2013-07-03 02:31:00,70.6,69.7,30.09,East,82,0.0,0.0,97,0.00,,BKN028,0.00,VWS V14.01,2013-07-03 06:31:00,
2013-07-03 02:32:00,70.6,69.7,30.09,East,82,0.0,0.0,97,0.00,,BKN028,0.00,VWS V14.01,2013-07-03 06:32:00,
2013-07-03 02:37:00,70.5,69.6,30.09,East,82,0.0,0.0,97,0.00,,BKN028,0.00,VWS V14.01,2013-07-03 06:37:00,
2013-07-03 02:42:00,70.5,69.9,30.09,East,82,0.0,0.0,98,0.00,,BKN028,0.00,VWS V14.01,2013-07-03 06:42:00,
2013-07-03 02:44:00,70.5,69.9,30.09,East,82,0.0,0.0,98,0.00,,BKN028,0.00,VWS V14.01,2013-07-03 06:44:00,
2013-07-03 02:49:00,70.6,70.0,30.09,East,82,0.0,0.0,98,0.00,,BKN028,0.00,VWS V14.01,2013-07-03 06:49:00,
2013-07-03 02:54:00,70.7,70.1,30.09,West,266,0.0,0.0,98,0.00,,BKN028,0.00,VWS V14.01,2013-07-03 06:54:00,
2013-07-03 02:55:00,70.7,70.1,30.09,West,266,0.0,0.0,98,0.00,,BKN028,0.00,VWS V14.01,2013-07-03 06:55:00,
2013-07-03 03:00:00,70.7,70.1,30.09,NNE,32,0.0,0.0,98,0.00,,BKN024,0.00,VWS V14.01,2013-07-03 07:00:00,
2013-07-03 03:05:00,70.7,70.1,30.09,NE,44,0.0,0.0,98,0.00,,BKN024,0.00,VWS V14.01,2013-07-03 07:05:00,
2013-07-03 03:10:00,70.7,70.1,30.09,NE,44,0.0,0.0,98,0.00,,BKN024,0.00,VWS V14.01,2013-07-03 07:10:00,
2013-07-03 03:16:00,70.6,70.0,30.09,NE,44,0.0,0.0,98,0.00,,BKN024,0.00,VWS V14.01,2013-07-03 07:16:00,
2013-07-03 03:21:00,70.5,69.9,30.09,NE,44,0.0,0.0,98,0.00,,BKN024,0.00,VWS V14.01,2013-07-03 07:21:00,
2013-07-03 03:26:00,70.5,69.9,30.09,NE,44,0.0,0.0,98,0.00,,BKN024,0.00,VWS V14.01,2013-07-03 07:26:00,
2013-07-03 03:31:00,70.4,69.8,30.09,NE,51,0.0,0.0,98,0.00,,SCT026,0.00,VWS V14.01,2013-07-03 07:31:00,
2013-07-03 03:36:00,70.4,69.8,30.09,NE,51,0.0,0.0,98,0.00,,SCT026,0.00,VWS V14.01,2013-07-03 07:36:00,
2013-07-03 03:38:00,70.4,69.8,30.09,East,81,0.0,0.0,98,0.00,,SCT026,0.00,VWS V14.01,2013-07-03 07:38:00,
2013-07-03 03:43:00,70.4,69.8,30.09,East,82,0.0,0.0,98,0.00,,SCT026,0.00,VWS V14.01,2013-07-03 07:43:00,
2013-07-03 03:48:00,70.5,69.9,30.09,East,82,0.0,0.0,98,0.00,,SCT026,0.00,VWS V14.01,2013-07-03 07:48:00,
2013-07-03 03:50:00,70.5,69.9,30.09,East,82,0.0,0.0,98,0.00,,SCT026,0.00,VWS V14.01,2013-07-03 07:50:00,
2013-07-03 03:55:00,70.6,70.0,30.09,East,82,0.0,0.0,98,0.00,,SCT026,0.00,VWS V14.01,2013-07-03 07:55:00,
2013-07-03 04:01:00,70.6,70.0,30.09,East,82,0.0,0.0,98,0.00,,SCT026,0.00,VWS V14.01,2013-07-03 08:01:00,
2013-07-03 04:06:00,70.6,70.0,30.09,East,82,0.0,0.0,98,0.00,,SCT026,0.00,VWS V14.01,2013-07-03 08:06:00,
2013-07-03 04:09:00,70.6,70.0,30.09,East,82,0.0,0.0,98,0.00,,SCT026,0.00,VWS V14.01,2013-07-03 08:09:00,
2013-07-03 04:14:00,70.6,70.0,30.09,East,82,0.0,0.0,98,0.00,,SCT026,0.00,VWS V14.01,2013-07-03 08:14:00,
2013-07-03 04:15:00,70.6,70.0,30.09,East,82,0.0,0.0,98,0.00,,SCT026,0.00,VWS V14.01,2013-07-03 08:15:00,
2013-07-03 04:18:00,70.5,69.9,30.09,East,82,0.0,0.0,98,0.00,,SCT026,0.00,VWS V14.01,2013-07-03 08:18:00,
2013-07-03 04:23:00,70.5,69.9,30.09,East,82,0.0,0.0,98,0.00,,SCT026,0.00,VWS V14.01,2013-07-03 08:23:00,
2013-07-03 04:28:00,70.5,69.9,30.09,East,82,0.0,0.0,98,0.00,,SCT026,0.00,VWS V14.01,2013-07-03 08:28:00,
2013-07-03 04:33:00,70.5,69.9,30.09,East,87,0.0,0.0,98,0.00,,BKN015,0.00,VWS V14.01,2013-07-03 08:33:00,
2013-07-03 04:39:00,70.4,69.8,30.09,East,87,0.0,0.0,98,0.00,,BKN015,0.00,VWS V14.01,2013-07-03 08:39:00,
2013-07-03 04:44:00,70.5,69.9,30.10,East,87,0.0,0.0,98,0.00,,BKN015,0.00,VWS V14.01,2013-07-03 08:44:00,
2013-07-03 04:45:00,70.5,69.9,30.10,East,87,0.0,0.0,98,0.00,,BKN015,0.00,VWS V14.01,2013-07-03 08:45:00,
2013-07-03 04:50:00,70.6,70.0,30.10,ENE,58,0.0,0.0,98,0.00,,BKN015,0.00,VWS V14.01,2013-07-03 08:50:00,
2013-07-03 04:54:00,70.6,70.0,30.10,ENE,58,0.0,0.0,98,0.00,,BKN015,0.00,VWS V14.01,2013-07-03 08:54:00,
2013-07-03 04:55:00,70.6,70.0,30.10,ENE,58,0.0,0.0,98,0.00,,BKN015,0.00,VWS V14.01,2013-07-03 08:55:00,
2013-07-03 05:00:00,70.6,70.0,30.10,ENE,58,0.0,0.0,98,0.00,,BKN015,0.00,VWS V14.01,2013-07-03 09:00:00,
2013-07-03 05:05:00,70.5,69.9,30.10,ENE,58,0.0,0.0,98,0.00,,BKN015,0.00,VWS V14.01,2013-07-03 09:05:00,
2013-07-03 05:10:00,70.5,69.9,30.11,NE,55,0.0,0.0,98,0.00,,BKN015,0.00,VWS V14.01,2013-07-03 09:10:00,
2013-07-03 05:15:00,70.6,70.0,30.11,NE,56,0.0,0.0,98,0.00,,BKN015,0.00,VWS V14.01,2013-07-03 09:15:00,
2013-07-03 05:20:00,70.7,70.1,30.11,NE,56,0.0,0.0,98,0.00,,BKN015,0.00,VWS V14.01,2013-07-03 09:20:00,
2013-07-03 05:25:00,70.8,70.2,30.11,NE,56,0.0,0.0,98,0.00,,BKN015,0.00,VWS V14.01,2013-07-03 09:25:00,
2013-07-03 05:30:00,70.8,70.2,30.11,East,82,0.0,0.0,98,0.00,,BKN047,0.00,VWS V14.01,2013-07-03 09:30:00,
2013-07-03 05:35:00,70.9,70.3,30.11,East,82,0.0,0.0,98,0.00,,BKN047,0.00,VWS V14.01,2013-07-03 09:35:00,
2013-07-03 05:40:00,70.9,70.3,30.11,East,82,0.0,0.0,98,0.00,,BKN047,0.00,VWS V14.01,2013-07-03 09:40:00,
2013-07-03 05:41:00,70.9,70.3,30.11,East,82,0.0,0.0,98,0.00,,BKN047,0.00,VWS V14.01,2013-07-03 09:41:00,
2013-07-03 05:46:00,71.0,70.4,30.11,East,82,0.0,0.0,98,0.00,,BKN047,0.00,VWS V14.01,2013-07-03 09:46:00,
2013-07-03 05:49:00,71.0,70.4,30.11,East,101,0.0,0.0,98,0.00,,BKN047,0.00,VWS V14.01,2013-07-03 09:49:00,
2013-07-03 05:50:00,71.0,70.4,30.11,East,101,0.0,0.0,98,0.00,,BKN047,0.00,VWS V14.01,2013-07-03 09:50:00,
2013-07-03 05:55:00,71.0,70.4,30.12,East,101,0.0,0.0,98,0.00,,BKN047,0.00,VWS V14.01,2013-07-03 09:55:00,
2013-07-03 06:00:00,70.9,70.3,30.12,East,100,0.0,0.0,98,0.00,,OVC043,0.00,VWS V14.01,2013-07-03 10:00:00,
2013-07-03 06:04:00,70.9,70.3,30.12,East,100,0.0,0.0,98,0.00,,OVC043,0.00,VWS V14.01,2013-07-03 10:04:00,
2013-07-03 06:05:00,70.9,70.3,30.12,East,100,0.0,0.0,98,0.00,,OVC043,0.00,VWS V14.01,2013-07-03 10:05:00,
2013-07-03 06:10:00,70.9,70.3,30.12,East,101,0.0,0.0,98,0.00,,OVC043,0.00,VWS V14.01,2013-07-03 10:10:00,
2013-07-03 06:15:00,71.1,70.5,30.12,East,101,0.0,0.0,98,0.00,,OVC043,0.00,VWS V14.01,2013-07-03 10:15:00,
2013-07-03 06:21:00,71.2,70.6,30.12,East,101,0.0,0.0,98,0.00,,OVC043,0.00,VWS V14.01,2013-07-03 10:21:00,
2013-07-03 06:26:00,71.4,70.8,30.12,East,101,0.0,0.0,98,0.00,,OVC043,0.00,VWS V14.01,2013-07-03 10:26:00,
2013-07-03 06:31:00,71.5,70.9,30.12,NE,39,0.0,0.0,98,0.00,,OVC043,0.00,VWS V14.01,2013-07-03 10:31:00,
2013-07-03 06:32:00,71.5,70.9,30.12,NE,39,0.0,0.0,98,0.00,,OVC043,0.00,VWS V14.01,2013-07-03 10:32:00,
2013-07-03 06:37:00,71.6,70.7,30.13,WSW,248,0.0,4.0,97,0.00,,OVC043,0.00,VWS V14.01,2013-07-03 10:37:00,
2013-07-03 06:42:00,71.8,70.9,30.13,ESE,105,0.0,4.0,97,0.00,,OVC043,0.00,VWS V14.01,2013-07-03 10:42:00,
2013-07-03 06:47:00,71.9,71.0,30.13,ESE,105,0.0,4.0,97,0.00,,OVC043,0.00,VWS V14.01,2013-07-03 10:47:00,
2013-07-03 06:49:00,72.0,71.1,30.13,East,89,1.0,4.0,97,0.00,,OVC043,0.00,VWS V14.01,2013-07-03 10:49:00,
2013-07-03 06:54:00,72.1,71.2,30.13,East,86,0.0,4.0,97,0.00,,OVC043,0.00,VWS V14.01,2013-07-03 10:54:00,
2013-07-03 06:55:00,72.1,71.2,30.13,East,86,0.0,4.0,97,0.00,,OVC043,0.00,VWS V14.01,2013-07-03 10:55:00,
2013-07-03 06:57:00,72.1,71.2,30.13,East,86,0.0,4.0,97,0.00,,OVC043,0.00,VWS V14.01,2013-07-03 10:57:00,
2013-07-03 07:02:00,72.2,71.3,30.14,East,95,0.0,0.0,97,0.00,,BKN047,0.00,VWS V14.01,2013-07-03 11:02:00,
2013-07-03 07:07:00,72.4,71.5,30.13,East,96,0.0,0.0,97,0.00,,BKN047,0.00,VWS V14.01,2013-07-03 11:07:00,
2013-07-03 07:08:00,72.4,71.5,30.13,East,96,0.0,0.0,97,0.00,,BKN047,0.00,VWS V14.01,2013-07-03 11:08:00,
2013-07-03 07:09:00,72.4,71.2,30.13,East,96,0.0,0.0,96,0.00,,BKN047,0.00,VWS V14.01,2013-07-03 11:09:00,
2013-07-03 07:14:00,72.5,71.3,30.13,East,96,1.0,2.0,96,0.00,,BKN047,0.00,VWS V14.01,2013-07-03 11:14:00,
2013-07-03 07:19:00,72.7,71.5,30.13,East,96,0.0,2.0,96,0.00,,BKN047,0.00,VWS V14.01,2013-07-03 11:19:00,
2013-07-03 07:23:00,72.8,71.6,30.14,East,81,0.0,2.0,96,0.00,,BKN047,0.00,VWS V14.01,2013-07-03 11:23:00,
2013-07-03 07:25:00,72.9,71.7,30.14,East,89,0.0,2.0,96,0.00,,BKN047,0.00,VWS V14.01,2013-07-03 11:25:00,
2013-07-03 07:30:00,73.0,71.8,30.14,East,84,0.0,2.0,96,0.00,,BKN047,0.00,VWS V14.01,2013-07-03 11:30:00,
2013-07-03 07:35:00,73.1,71.9,30.14,ENE,66,0.0,0.0,96,0.00,,BKN047,0.00,VWS V14.01,2013-07-03 11:35:00,
2013-07-03 07:40:00,73.2,71.7,30.14,ENE,66,0.0,0.0,95,0.00,,BKN047,0.00,VWS V14.01,2013-07-03 11:40:00,
2013-07-03 07:45:00,73.3,71.8,30.14,ENE,60,0.0,0.0,95,0.00,,BKN047,0.00,VWS V14.01,2013-07-03 11:45:00,
2013-07-03 07:50:00,73.4,71.9,30.14,ENE,60,0.0,0.0,95,0.00,,BKN047,0.00,VWS V14.01,2013-07-03 11:50:00,
2013-07-03 07:55:00,73.4,71.9,30.14,NE,39,1.0,3.0,95,0.00,,BKN047,0.00,VWS V14.01,2013-07-03 11:55:00,
2013-07-03 07:59:00,73.6,72.1,30.15,NE,48,0.0,3.0,95,0.00,,BKN047,0.00,VWS V14.01,2013-07-03 11:59:00,
2013-07-03 08:02:00,73.8,72.3,30.15,East,90,1.0,1.0,95,0.00,,OVC029,0.00,VWS V14.01,2013-07-03 12:02:00,
2013-07-03 08:07:00,74.0,72.5,30.15,NE,34,0.0,1.0,95,0.00,,OVC029,0.00,VWS V14.01,2013-07-03 12:07:00,
2013-07-03 08:12:00,74.4,72.9,30.15,NE,34,0.0,1.0,95,0.00,,OVC029,0.00,VWS V14.01,2013-07-03 12:12:00,
2013-07-03 08:16:00,74.9,73.4,30.15,ESE,117,1.0,1.0,95,0.00,,OVC029,0.00,VWS V14.01,2013-07-03 12:16:00,
2013-07-03 08:20:00,74.8,72.6,30.15,ESE,103,0.0,3.0,93,0.00,,OVC029,0.00,VWS V14.01,2013-07-03 12:20:00,
2013-07-03 08:25:00,75.0,72.5,30.15,SSE,156,1.0,3.0,92,0.00,,OVC029,0.00,VWS V14.01,2013-07-03 12:25:00,
2013-07-03 08:30:00,75.0,72.2,30.15,East,98,0.0,1.0,91,0.00,,OVC029,0.00,VWS V14.01,2013-07-03 12:30:00,
2013-07-03 08:36:00,75.2,72.4,30.16,ENE,68,0.0,1.0,91,0.00,,OVC029,0.00,VWS V14.01,2013-07-03 12:36:00,
2013-07-03 08:41:00,75.3,72.2,30.16,SE,142,0.0,2.0,90,0.00,,OVC029,0.00,VWS V14.01,2013-07-03 12:41:00,
2013-07-03 08:46:00,75.5,72.0,30.16,SSE,160,0.0,2.0,89,0.00,,OVC029,0.00,VWS V14.01,2013-07-03 12:46:00,
2013-07-03 08:51:00,75.7,72.6,30.16,SW,235,0.0,2.0,90,0.00,,OVC029,0.00,VWS V14.01,2013-07-03 12:51:00,
2013-07-03 08:56:00,76.0,72.5,30.16,ESE,107,1.0,2.0,89,0.00,,OVC029,0.00,VWS V14.01,2013-07-03 12:56:00,
2013-07-03 09:01:00,76.1,72.3,30.16,SE,134,0.0,1.0,88,0.00,,OVC028,0.00,VWS V14.01,2013-07-03 13:01:00,
2013-07-03 09:06:00,76.2,72.1,30.16,ESE,108,0.0,1.0,87,0.00,,OVC028,0.00,VWS V14.01,2013-07-03 13:06:00,
2013-07-03 09:11:00,76.4,72.6,30.16,SW,231,1.0,2.0,88,0.00,,OVC028,0.00,VWS V14.01,2013-07-03 13:11:00,
2013-07-03 09:17:00,76.4,72.2,30.16,SSW,205,0.0,2.0,87,0.00,,OVC028,0.00,VWS V14.01,2013-07-03 13:17:00,
2013-07-03 09:22:00,76.6,72.8,30.15,SE,138,0.0,2.0,88,0.00,,OVC028,0.00,VWS V14.01,2013-07-03 13:22:00,
2013-07-03 09:25:00,76.7,72.5,30.16,East,79,1.0,2.0,87,0.00,,OVC028,0.00,VWS V14.01,2013-07-03 13:25:00,
2013-07-03 09:30:00,76.9,72.7,30.15,NE,56,0.0,2.0,87,0.00,,OVC028,0.00,VWS V14.01,2013-07-03 13:30:00,
2013-07-03 09:35:00,77.0,72.2,30.15,ESE,110,0.0,3.0,85,0.00,,OVC028,0.00,VWS V14.01,2013-07-03 13:35:00,
2013-07-03 09:37:00,77.0,72.5,30.15,ESE,105,0.0,3.0,86,0.00,,OVC028,0.00,VWS V14.01,2013-07-03 13:37:00,
2013-07-03 09:42:00,76.9,72.1,30.15,East,94,2.0,4.0,85,0.00,,OVC028,0.00,VWS V14.01,2013-07-03 13:42:00,
2013-07-03 09:47:00,77.1,72.6,30.15,ENE,66,0.0,4.0,86,0.00,,OVC028,0.00,VWS V14.01,2013-07-03 13:47:00,
2013-07-03 09:52:00,77.3,72.4,30.15,SW,215,2.0,4.0,85,0.00,,OVC028,0.00,VWS V14.01,2013-07-03 13:52:00,
2013-07-03 09:57:00,77.3,72.4,30.16,East,79,0.0,4.0,85,0.00,,OVC028,0.00,VWS V14.01,2013-07-03 13:57:00,
2013-07-03 10:03:00,77.4,72.9,30.16,East,94,1.0,2.0,86,0.00,,OVC031,0.00,VWS V14.01,2013-07-03 14:03:00,
2013-07-03 10:06:00,77.4,72.5,30.15,ESE,108,0.0,2.0,85,0.00,,OVC031,0.00,VWS V14.01,2013-07-03 14:06:00,
2013-07-03 10:09:00,77.4,72.5,30.15,ESE,119,1.0,3.0,85,0.00,,OVC031,0.00,VWS V14.01,2013-07-03 14:09:00,
2013-07-03 10:14:00,77.6,72.7,30.15,SE,132,0.0,3.0,85,0.00,,OVC031,0.00,VWS V14.01,2013-07-03 14:14:00,
2013-07-03 10:17:00,77.7,72.8,30.15,East,92,2.0,3.0,85,0.00,,OVC031,0.00,VWS V14.01,2013-07-03 14:17:00,
2013-07-03 10:22:00,77.8,72.9,30.15,East,86,1.0,3.0,85,0.00,,OVC031,0.00,VWS V14.01,2013-07-03 14:22:00,
2013-07-03 10:27:00,77.9,73.0,30.16,ESE,108,0.0,3.0,85,0.00,,OVC031,0.00,VWS V14.01,2013-07-03 14:27:00,
2013-07-03 10:30:00,78.1,73.2,30.15,ESE,107,0.0,3.0,85,0.00,,OVC031,0.00,VWS V14.01,2013-07-03 14:30:00,
2013-07-03 10:35:00,78.2,73.0,30.15,ENE,71,0.0,2.0,84,0.00,,OVC031,0.00,VWS V14.01,2013-07-03 14:35:00,
2013-07-03 10:38:00,78.3,73.4,30.15,ENE,66,0.0,2.0,85,0.00,,OVC031,0.00,VWS V14.01,2013-07-03 14:38:00,
2013-07-03 10:41:00,78.4,73.2,30.15,ENE,69,0.0,2.0,84,0.00,,OVC031,0.00,VWS V14.01,2013-07-03 14:41:00,
2013-07-03 10:46:00,78.6,73.0,30.15,East,97,0.0,2.0,83,0.00,,OVC031,0.00,VWS V14.01,2013-07-03 14:46:00,
2013-07-03 10:51:00,79.0,73.8,30.15,SE,124,1.0,2.0,84,0.00,,OVC031,0.00,VWS V14.01,2013-07-03 14:51:00,
2013-07-03 10:56:00,79.5,73.5,30.15,ESE,120,0.0,2.0,82,0.00,,OVC031,0.00,VWS V14.01,2013-07-03 14:56:00,
2013-07-03 10:58:00,79.6,73.3,30.15,SE,129,0.0,2.0,81,0.00,,OVC031,0.00,VWS V14.01,2013-07-03 14:58:00,
2013-07-03 11:03:00,79.7,73.7,30.15,East,101,0.0,3.0,82,0.00,,BKN042,0.00,VWS V14.01,2013-07-03 15:03:00,
2013-07-03 11:08:00,80.3,74.7,30.15,ESE,104,0.0,3.0,83,0.00,,BKN042,0.00,VWS V14.01,2013-07-03 15:08:00,
2013-07-03 11:13:00,81.0,74.2,30.15,NNE,27,2.0,3.0,80,0.00,,BKN042,0.00,VWS V14.01,2013-07-03 15:13:00,
2013-07-03 11:16:00,80.9,74.2,30.15,WNW,295,0.0,3.0,80,0.00,,BKN042,0.00,VWS V14.01,2013-07-03 15:16:00,
2013-07-03 11:22:00,80.8,74.1,30.15,West,266,2.0,3.0,80,0.00,,BKN042,0.00,VWS V14.01,2013-07-03 15:22:00,
2013-07-03 11:27:00,80.4,73.7,30.15,ENE,76,2.0,4.0,80,0.00,,BKN042,0.00,VWS V14.01,2013-07-03 15:27:00,
2013-07-03 11:28:00,80.3,73.2,30.15,South,184,1.0,4.0,79,0.00,,BKN042,0.00,VWS V14.01,2013-07-03 15:28:00,
2013-07-03 11:33:00,80.3,73.6,30.15,West,278,1.0,4.0,80,0.00,,BKN042,0.00,VWS V14.01,2013-07-03 15:33:00,
2013-07-03 11:38:00,80.2,73.1,30.15,SW,233,1.0,5.0,79,0.00,,BKN042,0.00,VWS V14.01,2013-07-03 15:38:00,
2013-07-03 11:40:00,80.3,73.6,30.15,SW,223,3.0,5.0,80,0.00,,BKN042,0.00,VWS V14.01,2013-07-03 15:40:00,
2013-07-03 11:45:00,80.8,74.1,30.15,East,91,2.0,6.0,80,0.00,,BKN042,0.00,VWS V14.01,2013-07-03 15:45:00,
2013-07-03 11:50:00,81.1,74.0,30.15,ENE,58,1.0,6.0,79,0.00,,BKN042,0.00,VWS V14.01,2013-07-03 15:50:00,
2013-07-03 11:52:00,81.1,74.0,30.15,SW,236,1.0,6.0,79,0.00,,BKN042,0.00,VWS V14.01,2013-07-03 15:52:00,
2013-07-03 11:53:00,81.0,73.5,30.15,SW,217,3.0,6.0,78,0.00,,BKN042,0.00,VWS V14.01,2013-07-03 15:53:00,
2013-07-03 11:58:00,80.8,74.1,30.15,ESE,118,0.0,9.0,80,0.00,,BKN042,0.00,VWS V14.01,2013-07-03 15:58:00,
2013-07-03 12:03:00,81.0,73.9,30.15,WSW,255,4.0,5.0,79,0.00,,OVC055,0.00,VWS V14.01,2013-07-03 16:03:00,
2013-07-03 12:08:00,81.0,73.9,30.15,WSW,242,1.0,5.0,79,0.00,,OVC055,0.00,VWS V14.01,2013-07-03 16:08:00,
2013-07-03 12:13:00,81.2,73.7,30.15,West,259,2.0,6.0,78,0.00,,OVC055,0.00,VWS V14.01,2013-07-03 16:13:00,
2013-07-03 12:18:00,81.6,73.7,30.15,SW,235,1.0,6.0,77,0.00,,OVC055,0.00,VWS V14.01,2013-07-03 16:18:00,
2013-07-03 12:23:00,82.2,73.9,30.15,SW,218,0.0,6.0,76,0.00,,OVC055,0.00,VWS V14.01,2013-07-03 16:23:00,
2013-07-03 12:28:00,82.7,74.0,30.14,ESE,107,3.0,6.0,75,0.00,,OVC055,0.00,VWS V14.01,2013-07-03 16:28:00,
2013-07-03 12:33:00,83.1,74.0,30.14,SSW,212,0.0,6.0,74,0.00,,OVC055,0.00,VWS V14.01,2013-07-03 16:33:00,
2013-07-03 12:38:00,83.2,73.7,30.14,West,264,0.0,6.0,73,0.00,,OVC055,0.00,VWS V14.01,2013-07-03 16:38:00,
2013-07-03 12:44:00,82.8,73.3,30.14,WSW,242,1.0,7.0,73,0.00,,OVC055,0.00,VWS V14.01,2013-07-03 16:44:00,
2013-07-03 12:49:00,83.3,73.8,30.14,SW,228,1.0,7.0,73,0.00,,OVC055,0.00,VWS V14.01,2013-07-03 16:49:00,
2013-07-03 12:54:00,83.9,74.3,30.14,SSE,148,2.0,7.0,73,0.00,,OVC055,0.00,VWS V14.01,2013-07-03 16:54:00,
2013-07-03 12:59:00,83.7,74.1,30.14,NNE,22,0.0,8.0,73,0.00,,OVC055,0.00,VWS V14.01,2013-07-03 16:59:00,
2013-07-03 13:04:00,83.9,73.5,30.14,East,91,0.0,4.0,71,0.00,,SCT055,0.00,VWS V14.01,2013-07-03 17:04:00,
2013-07-03 13:09:00,83.5,72.7,30.14,SSW,211,2.0,7.0,70,0.00,,SCT055,0.00,VWS V14.01,2013-07-03 17:09:00,
2013-07-03 13:14:00,83.4,71.7,30.14,South,190,2.0,10.0,68,0.00,,SCT055,0.00,VWS V14.01,2013-07-03 17:14:00,
2013-07-03 13:19:00,83.5,73.5,30.14,NE,46,0.0,10.0,72,0.00,,SCT055,0.00,VWS V14.01,2013-07-03 17:19:00,
2013-07-03 13:24:00,83.6,74.0,30.13,SE,127,1.0,10.0,73,0.00,,SCT055,0.00,VWS V14.01,2013-07-03 17:24:00,
2013-07-03 13:29:00,83.6,74.0,30.13,SW,219,1.0,10.0,73,0.00,,SCT055,0.00,VWS V14.01,2013-07-03 17:29:00,
2013-07-03 13:34:00,83.4,73.8,30.14,SW,219,1.0,5.0,73,0.00,,BKN027,0.00,VWS V14.01,2013-07-03 17:34:00,
2013-07-03 13:40:00,83.7,73.7,30.14,SW,222,1.0,5.0,72,0.00,,BKN027,0.00,VWS V14.01,2013-07-03 17:40:00,
2013-07-03 13:45:00,84.1,74.1,30.14,ENE,66,1.0,7.0,72,0.00,,BKN027,0.00,VWS V14.01,2013-07-03 17:45:00,
2013-07-03 13:50:00,84.1,73.3,30.14,SSW,200,2.0,7.0,70,0.00,,BKN027,0.00,VWS V14.01,2013-07-03 17:50:00,
2013-07-03 13:55:00,84.1,74.5,30.14,East,94,3.0,7.0,73,0.00,,BKN027,0.00,VWS V14.01,2013-07-03 17:55:00,
2013-07-03 14:00:00,84.1,74.1,30.14,NE,56,1.0,7.0,72,0.00,,BKN027,0.00,VWS V14.01,2013-07-03 18:00:00,
2013-07-03 14:05:00,83.8,73.8,30.13,WSW,239,3.0,6.0,72,0.00,,BKN027,0.00,VWS V14.01,2013-07-03 18:05:00,
2013-07-03 14:11:00,83.7,73.7,30.13,NNE,19,0.0,7.0,72,0.00,,BKN027,0.00,VWS V14.01,2013-07-03 18:11:00,
2013-07-03 14:16:00,84.1,74.5,30.13,South,176,1.0,7.0,73,0.00,,BKN027,0.00,VWS V14.01,2013-07-03 18:16:00,
2013-07-03 14:21:00,84.6,74.6,30.12,SE,126,0.0,7.0,72,0.00,,BKN027,0.00,VWS V14.01,2013-07-03 18:21:00,
2013-07-03 14:26:00,85.6,75.1,30.12,SW,232,1.0,7.0,71,0.00,,BKN027,0.00,VWS V14.01,2013-07-03 18:26:00,
2013-07-03 14:31:00,86.4,74.6,30.12,WSW,249,4.0,4.0,68,0.00,,FEW024,0.00,VWS V14.01,2013-07-03 18:31:00,
2013-07-03 14:36:00,86.5,73.3,30.12,East,79,2.0,4.0,65,0.00,,FEW024,0.00,VWS V14.01,2013-07-03 18:36:00,
2013-07-03 14:41:00,85.9,72.8,30.11,WSW,243,1.0,4.0,65,0.00,,FEW024,0.00,VWS V14.01,2013-07-03 18:41:00,
2013-07-03 14:46:00,85.9,73.2,30.11,SSW,205,2.0,4.0,66,0.00,,FEW024,0.00,VWS V14.01,2013-07-03 18:46:00,
2013-07-03 14:51:00,85.7,73.9,30.11,SW,226,1.0,5.0,68,0.00,,FEW024,0.00,VWS V14.01,2013-07-03 18:51:00,
2013-07-03 14:56:00,85.6,73.4,30.11,East,84,2.0,5.0,67,0.00,,FEW024,0.00,VWS V14.01,2013-07-03 18:56:00,
2013-07-03 15:02:00,85.6,73.4,30.11,East,86,2.0,5.0,67,0.00,,BKN055,0.00,VWS V14.01,2013-07-03 19:02:00,
2013-07-03 15:07:00,85.6,74.3,30.11,SW,219,3.0,6.0,69,0.00,,BKN055,0.00,VWS V14.01,2013-07-03 19:07:00,
2013-07-03 15:12:00,86.1,74.3,30.11,ENE,61,1.0,6.0,68,0.00,,BKN055,0.00,VWS V14.01,2013-07-03 19:12:00,
2013-07-03 15:17:00,86.1,74.8,30.11,SW,223,2.0,6.0,69,0.00,,BKN055,0.00,VWS V14.01,2013-07-03 19:17:00,
2013-07-03 15:22:00,85.7,73.9,30.11,SW,225,5.0,7.0,68,0.00,,BKN055,0.00,VWS V14.01,2013-07-03 19:22:00,
2013-07-03 15:27:00,85.0,73.3,30.12,South,183,4.0,8.0,68,0.00,,BKN055,0.00,VWS V14.01,2013-07-03 19:27:00,
2013-07-03 15:32:00,85.4,74.9,30.11,ESE,117,1.0,4.0,71,0.00,,BKN055,0.00,VWS V14.01,2013-07-03 19:32:00,
2013-07-03 15:38:00,86.2,74.8,30.11,SW,222,6.0,8.0,69,0.00,,BKN055,0.00,VWS V14.01,2013-07-03 19:38:00,
2013-07-03 15:43:00,86.7,74.4,30.11,SSE,153,1.0,8.0,67,0.00,,BKN055,0.00,VWS V14.01,2013-07-03 19:43:00,
2013-07-03 15:48:00,87.1,74.8,30.11,ENE,76,2.0,8.0,67,0.00,,BKN055,0.00,VWS V14.01,2013-07-03 19:48:00,
2013-07-03 15:53:00,87.4,75.6,30.11,SSE,166,0.0,8.0,68,0.00,,BKN055,0.00,VWS V14.01,2013-07-03 19:53:00,
2013-07-03 15:58:00,87.2,74.0,30.10,SW,217,1.0,8.0,65,0.00,,BKN055,0.00,VWS V14.01,2013-07-03 19:58:00,
2013-07-03 16:03:00,87.0,74.7,30.10,ESE,115,2.0,6.0,67,0.00,,BKN040,0.00,VWS V14.01,2013-07-03 20:03:00,
2013-07-03 16:08:00,86.7,74.9,30.10,NNE,27,1.0,6.0,68,0.00,,BKN040,0.00,VWS V14.01,2013-07-03 20:08:00,
2013-07-03 16:13:00,86.1,74.3,30.10,South,174,2.0,6.0,68,0.00,,BKN040,0.00,VWS V14.01,2013-07-03 20:13:00,
2013-07-03 16:18:00,85.9,74.6,30.10,SW,231,3.0,6.0,69,0.00,,BKN040,0.00,VWS V14.01,2013-07-03 20:18:00,
2013-07-03 16:23:00,85.8,74.5,30.10,South,169,1.0,9.0,69,0.00,,BKN040,0.00,VWS V14.01,2013-07-03 20:23:00,
2013-07-03 16:28:00,86.1,75.2,30.10,SSW,199,4.0,9.0,70,0.00,,BKN040,0.00,VWS V14.01,2013-07-03 20:28:00,
2013-07-03 16:33:00,85.6,74.7,30.10,SW,214,1.0,7.0,70,0.00,,BKN040,0.00,VWS V14.01,2013-07-03 20:33:00,
2013-07-03 16:38:00,85.2,74.3,30.10,ENE,75,1.0,7.0,70,0.00,,BKN040,0.00,VWS V14.01,2013-07-03 20:38:00,
2013-07-03 16:43:00,84.9,74.0,30.10,SW,215,6.0,10.0,70,0.00,,BKN040,0.00,VWS V14.01,2013-07-03 20:43:00,
2013-07-03 16:48:00,84.7,74.7,30.10,ENE,58,1.0,10.0,72,0.00,,BKN040,0.00,VWS V14.01,2013-07-03 20:48:00,
2013-07-03 16:53:00,84.4,74.4,30.11,SW,236,3.0,10.0,72,0.00,,BKN040,0.00,VWS V14.01,2013-07-03 20:53:00,
2013-07-03 16:59:00,84.1,74.1,30.11,SSW,194,4.0,10.0,72,0.00,,BKN040,0.00,VWS V14.01,2013-07-03 20:59:00,
2013-07-03 17:04:00,84.2,74.2,30.11,South,188,2.0,7.0,72,0.00,,BKN040,0.00,VWS V14.01,2013-07-03 21:04:00,
2013-07-03 17:09:00,84.7,74.3,30.10,SW,228,8.0,8.0,71,0.00,,BKN040,0.00,VWS V14.01,2013-07-03 21:09:00,
2013-07-03 17:14:00,85.1,74.2,30.11,ESE,114,2.0,8.0,70,0.00,,BKN040,0.00,VWS V14.01,2013-07-03 21:14:00,
2013-07-03 17:19:00,85.4,74.5,30.11,WSW,243,6.0,8.0,70,0.00,,BKN040,0.00,VWS V14.01,2013-07-03 21:19:00,
2013-07-03 17:24:00,85.3,74.8,30.10,SW,221,6.0,10.0,71,0.00,,BKN040,0.00,VWS V14.01,2013-07-03 21:24:00,
2013-07-03 17:29:00,85.2,75.2,30.10,WSW,245,2.0,10.0,72,0.00,,BKN040,0.00,VWS V14.01,2013-07-03 21:29:00,
2013-07-03 17:34:00,85.5,75.0,30.10,SW,221,10.0,11.0,71,0.00,,SCT040,0.00,VWS V14.01,2013-07-03 21:34:00,
2013-07-03 17:39:00,84.9,74.4,30.10,SW,216,2.0,11.0,71,0.00,,SCT040,0.00,VWS V14.01,2013-07-03 21:39:00,
2013-07-03 17:44:00,84.5,74.5,30.10,ENE,76,2.0,13.0,72,0.00,,SCT040,0.00,VWS V14.01,2013-07-03 21:44:00,
2013-07-03 17:50:00,84.1,74.1,30.10,SW,221,5.0,13.0,72,0.00,,SCT040,0.00,VWS V14.01,2013-07-03 21:50:00,
2013-07-03 17:55:00,84.0,74.4,30.10,WSW,249,1.0,13.0,73,0.00,,SCT040,0.00,VWS V14.01,2013-07-03 21:55:00,
2013-07-03 18:00:00,84.1,74.5,30.10,SW,222,4.0,13.0,73,0.00,,SCT040,0.00,VWS V14.01,2013-07-03 22:00:00,
2013-07-03 18:05:00,84.2,74.6,30.10,SW,215,5.0,10.0,73,0.00,,SCT040,0.00,VWS V14.01,2013-07-03 22:05:00,
2013-07-03 18:10:00,83.9,74.3,30.10,SW,226,2.0,10.0,73,0.00,,SCT040,0.00,VWS V14.01,2013-07-03 22:10:00,
2013-07-03 18:15:00,83.7,74.1,30.10,South,187,3.0,10.0,73,0.00,,SCT040,0.00,VWS V14.01,2013-07-03 22:15:00,
2013-07-03 18:20:00,83.4,73.8,30.10,SSW,208,4.0,10.0,73,0.00,,SCT040,0.00,VWS V14.01,2013-07-03 22:20:00,
2013-07-03 18:25:00,83.1,74.0,30.10,SSW,195,2.0,10.0,74,0.00,,SCT040,0.00,VWS V14.01,2013-07-03 22:25:00,
2013-07-03 18:31:00,82.8,74.1,30.10,SW,224,1.0,3.0,75,0.00,,SCT040,0.00,VWS V14.01,2013-07-03 22:31:00,
2013-07-03 18:36:00,82.6,73.9,30.10,SW,219,3.0,8.0,75,0.00,,SCT040,0.00,VWS V14.01,2013-07-03 22:36:00,
2013-07-03 18:41:00,82.5,73.8,30.10,West,264,3.0,8.0,75,0.00,,SCT040,0.00,VWS V14.01,2013-07-03 22:41:00,
2013-07-03 18:46:00,82.3,74.0,30.10,SW,221,2.0,8.0,76,0.00,,SCT040,0.00,VWS V14.01,2013-07-03 22:46:00,
2013-07-03 18:51:00,82.2,73.9,30.10,SW,228,3.0,8.0,76,0.00,,SCT040,0.00,VWS V14.01,2013-07-03 22:51:00,
2013-07-03 18:56:00,82.1,73.8,30.10,SW,226,5.0,13.0,76,0.00,,SCT040,0.00,VWS V14.01,2013-07-03 22:56:00,
2013-07-03 19:01:00,82.0,73.7,30.10,WSW,250,5.0,5.0,76,0.00,,SCT050,0.00,VWS V14.01,2013-07-03 23:01:00,
2013-07-03 19:06:00,82.0,74.1,30.10,SW,224,6.0,8.0,77,0.00,,SCT050,0.00,VWS V14.01,2013-07-03 23:06:00,
2013-07-03 19:11:00,81.9,73.6,30.10,SW,232,3.0,10.0,76,0.00,,SCT050,0.00,VWS V14.01,2013-07-03 23:11:00,
2013-07-03 19:16:00,81.9,74.0,30.11,SSW,208,3.0,10.0,77,0.00,,SCT050,0.00,VWS V14.01,2013-07-03 23:16:00,
2013-07-03 19:21:00,81.7,73.4,30.11,SSE,159,1.0,10.0,76,0.00,,SCT050,0.00,VWS V14.01,2013-07-03 23:21:00,
2013-07-03 19:26:00,81.6,73.7,30.11,SW,219,1.0,10.0,77,0.00,,SCT050,0.00,VWS V14.01,2013-07-03 23:26:00,
2013-07-03 19:31:00,81.6,73.7,30.11,ESE,120,3.0,6.0,77,0.00,,SCT050,0.00,VWS V14.01,2013-07-03 23:31:00,
2013-07-03 19:36:00,81.4,73.9,30.11,SSW,211,1.0,7.0,78,0.00,,SCT050,0.00,VWS V14.01,2013-07-03 23:36:00,
2013-07-03 19:41:00,81.3,73.8,30.11,SSW,204,3.0,7.0,78,0.00,,SCT050,0.00,VWS V14.01,2013-07-03 23:41:00,
2013-07-03 19:46:00,81.2,73.7,30.11,SSW,208,1.0,7.0,78,0.00,,SCT050,0.00,VWS V14.01,2013-07-03 23:46:00,
2013-07-03 19:51:00,81.2,73.7,30.12,SSE,152,3.0,8.0,78,0.00,,SCT050,0.00,VWS V14.01,2013-07-03 23:51:00,
2013-07-03 19:57:00,81.1,73.6,30.12,SW,214,4.0,8.0,78,0.00,,SCT050,0.00,VWS V14.01,2013-07-03 23:57:00,
2013-07-03 20:02:00,81.1,73.6,30.12,WSW,239,1.0,6.0,78,0.00,,BKN150,0.00,VWS V14.01,2013-07-04 00:02:00,
2013-07-03 20:07:00,81.1,73.2,30.12,SW,219,5.0,7.0,77,0.00,,BKN150,0.00,VWS V14.01,2013-07-04 00:07:00,
2013-07-03 20:12:00,81.2,72.9,30.12,SSW,203,4.0,11.0,76,0.00,,BKN150,0.00,VWS V14.01,2013-07-04 00:12:00,
2013-07-03 20:17:00,81.1,72.8,30.12,WSW,249,5.0,11.0,76,0.00,,BKN150,0.00,VWS V14.01,2013-07-04 00:17:00,
2013-07-03 20:22:00,81.1,72.8,30.13,West,278,2.0,11.0,76,0.00,,BKN150,0.00,VWS V14.01,2013-07-04 00:22:00,
2013-07-03 20:27:00,81.0,72.7,30.13,East,79,1.0,11.0,76,0.00,,BKN150,0.00,VWS V14.01,2013-07-04 00:27:00,
2013-07-03 20:32:00,81.0,72.7,30.12,WSW,249,1.0,5.0,76,0.00,,BKN150,0.00,VWS V14.01,2013-07-04 00:32:00,
2013-07-03 20:37:00,80.9,72.6,30.13,ESE,110,0.0,5.0,76,0.00,,BKN150,0.00,VWS V14.01,2013-07-04 00:37:00,
2013-07-03 20:42:00,80.8,72.5,30.13,SSE,160,1.0,5.0,76,0.00,,BKN150,0.00,VWS V14.01,2013-07-04 00:42:00,
2013-07-03 20:47:00,80.8,72.5,30.13,SSE,150,1.0,5.0,76,0.00,,BKN150,0.00,VWS V14.01,2013-07-04 00:47:00,
2013-07-03 20:52:00,80.7,72.4,30.13,WNW,297,1.0,6.0,76,0.00,,BKN150,0.00,VWS V14.01,2013-07-04 00:52:00,
2013-07-03 20:57:00,80.6,72.3,30.13,SW,218,0.0,6.0,76,0.00,,BKN150,0.00,VWS V14.01,2013-07-04 00:57:00,
2013-07-03 21:03:00,80.4,72.5,30.13,ESE,115,0.0,0.0,77,0.00,,BKN150,0.00,VWS V14.01,2013-07-04 01:03:00,
2013-07-03 21:08:00,80.4,72.2,30.13,West,278,0.0,5.0,76,0.00,,BKN150,0.00,VWS V14.01,2013-07-04 01:08:00,
2013-07-03 21:13:00,80.3,72.1,30.13,NW,312,0.0,5.0,76,0.00,,BKN150,0.00,VWS V14.01,2013-07-04 01:13:00,
2013-07-03 21:18:00,80.2,71.9,30.13,South,187,0.0,5.0,76,0.00,,BKN150,0.00,VWS V14.01,2013-07-04 01:18:00,
2013-07-03 21:23:00,80.2,71.9,30.13,NNW,344,0.0,5.0,76,0.00,,BKN150,0.00,VWS V14.01,2013-07-04 01:23:00,
2013-07-03 21:28:00,80.1,72.6,30.14,East,85,0.0,5.0,78,0.00,,BKN150,0.00,VWS V14.01,2013-07-04 01:28:00,
2013-07-03 21:33:00,79.9,72.4,30.14,East,89,0.0,2.0,78,0.00,,BKN150,0.00,VWS V14.01,2013-07-04 01:33:00,
2013-07-03 21:38:00,79.7,72.6,30.14,East,94,1.0,2.0,79,0.00,,BKN150,0.00,VWS V14.01,2013-07-04 01:38:00,
2013-07-03 21:43:00,79.6,72.5,30.14,East,94,0.0,2.0,79,0.00,,BKN150,0.00,VWS V14.01,2013-07-04 01:43:00,
2013-07-03 21:48:00,79.5,72.4,30.14,East,94,0.0,2.0,79,0.00,,BKN150,0.00,VWS V14.01,2013-07-04 01:48:00,
2013-07-03 21:53:00,79.4,72.7,30.14,SW,217,0.0,2.0,80,0.00,,BKN150,0.00,VWS V14.01,2013-07-04 01:53:00,
2013-07-03 21:58:00,79.2,72.9,30.14,SW,217,0.0,2.0,81,0.00,,BKN150,0.00,VWS V14.01,2013-07-04 01:58:00,
2013-07-03 22:03:00,78.8,72.5,30.14,SW,217,0.0,0.0,81,0.00,,FEW027,0.00,VWS V14.01,2013-07-04 02:03:00,
2013-07-03 22:08:00,78.5,72.6,30.14,SW,217,0.0,0.0,82,0.00,,FEW027,0.00,VWS V14.01,2013-07-04 02:08:00,
2013-07-03 22:14:00,78.2,72.6,30.15,SW,218,0.0,0.0,83,0.00,,FEW027,0.00,VWS V14.01,2013-07-04 02:14:00,
2013-07-03 22:19:00,77.8,72.6,30.15,SW,217,0.0,0.0,84,0.00,,FEW027,0.00,VWS V14.01,2013-07-04 02:19:00,
2013-07-03 22:24:00,77.5,72.3,30.15,SW,217,0.0,0.0,84,0.00,,FEW027,0.00,VWS V14.01,2013-07-04 02:24:00,
2013-07-03 22:29:00,77.2,72.3,30.15,SW,217,0.0,0.0,85,0.00,,FEW027,0.00,VWS V14.01,2013-07-04 02:29:00,
2013-07-03 22:34:00,77.1,72.2,30.15,SW,217,0.0,0.0,85,0.00,,FEW027,0.00,VWS V14.01,2013-07-04 02:34:00,
2013-07-03 22:39:00,76.9,72.4,30.15,SSE,152,0.0,0.0,86,0.00,,FEW027,0.00,VWS V14.01,2013-07-04 02:39:00,
2013-07-03 22:44:00,76.7,72.2,30.15,SSE,153,0.0,0.0,86,0.00,,FEW027,0.00,VWS V14.01,2013-07-04 02:44:00,
2013-07-03 22:49:00,76.4,72.2,30.15,SE,145,0.0,0.0,87,0.00,,FEW027,0.00,VWS V14.01,2013-07-04 02:49:00,
2013-07-03 22:54:00,76.2,72.1,30.15,SE,145,0.0,0.0,87,0.00,,FEW027,0.00,VWS V14.01,2013-07-04 02:54:00,
2013-07-03 22:59:00,76.0,71.9,30.14,ESE,120,0.0,0.0,87,0.00,,FEW027,0.00,VWS V14.01,2013-07-04 02:59:00,
2013-07-03 23:04:00,75.8,72.0,30.15,ESE,120,0.0,0.0,88,0.00,,CLR,0.00,VWS V14.01,2013-07-04 03:04:00,
2013-07-03 23:09:00,75.7,71.9,30.15,ESE,120,0.0,0.0,88,0.00,,CLR,0.00,VWS V14.01,2013-07-04 03:09:00,
2013-07-03 23:14:00,75.5,71.7,30.15,ESE,120,0.0,0.0,88,0.00,,CLR,0.00,VWS V14.01,2013-07-04 03:14:00,
2013-07-03 23:19:00,75.3,71.8,30.15,ESE,108,0.0,0.0,89,0.00,,CLR,0.00,VWS V14.01,2013-07-04 03:19:00,
2013-07-03 23:24:00,75.1,71.6,30.15,ESE,109,0.0,0.0,89,0.00,,CLR,0.00,VWS V14.01,2013-07-04 03:24:00,
2013-07-03 23:29:00,75.0,71.9,30.15,ESE,109,0.0,0.0,90,0.00,,CLR,0.00,VWS V14.01,2013-07-04 03:29:00,
2013-07-03 23:35:00,74.8,71.7,30.16,ESE,108,0.0,0.0,90,0.00,,CLR,0.00,VWS V14.01,2013-07-04 03:35:00,
2013-07-03 23:40:00,74.7,71.6,30.16,NE,37,1.0,2.0,90,0.00,,CLR,0.00,VWS V14.01,2013-07-04 03:40:00,
2013-07-03 23:45:00,74.7,71.9,30.16,NE,37,1.0,2.0,91,0.00,,CLR,0.00,VWS V14.01,2013-07-04 03:45:00,
2013-07-03 23:50:00,74.8,72.3,30.16,SE,124,0.0,2.0,92,0.00,,CLR,0.00,VWS V14.01,2013-07-04 03:50:00,
2013-07-03 23:55:00,74.7,72.2,30.16,East,82,0.0,2.0,92,0.00,,CLR,0.00,VWS V14.01,2013-07-04 03:55:00,